Colima, Mexico

11:35 AM CDT on August 27, 2016 (GMT -0500)
Colima

Weather History for MMIA - October, 2012

Change the Weather History Date:

Thursday, October 11, 2012

  Actual Average Record
Temperature  
Mean Temperature 82 °F -  
Max Temperature 96 °F 82 °F 98 °F (2014)
Min Temperature 68 °F 68 °F 68 °F (2003)
Cooling Degree Days 17    
Growing Degree Days 32 (Base 50)    
Moisture  
Dew Point 68 °F    
Average Humidity 73    
Maximum Humidity 94    
Minimum Humidity 45    
Precipitation  
Precipitation 0.47 in - - ()
Sea Level Pressure  
Sea Level Pressure 29.98 in    
Wind  
Wind Speed 4 mph ()    
Max Wind Speed 28 mph    
Max Gust Speed 29 mph    
Visibility 5.8 miles    
Events Rain , Thunderstorm    
Averages and records for this station are not official NWS values.
T = Trace of Precipitation, MM = Missing Value Source: Averaged Metar Reports

Daily Weather History Graph

Daily Weather History Graph

Search for Another Location

Airport or City:

Trip Planner

Search our weather history database for the weather conditions in past years. The results will help you decide how hot, cold, wet, or windy it might be!

Date:

Astronomy

Oct. 11, 2012 Rise Set
Actual Time 7:47 AM CDT 7:33 PM CDT
Civil Twilight 7:25 AM CDT 7:55 PM CDT
Nautical Twilight 7:00 AM CDT 8:21 PM CDT
Astronomical Twilight 6:34 AM CDT 8:46 PM CDT
Moon 4:00 AM CDT (10/11) 4:45 PM CDT (10/11)
Length of Visible Light 12h 30m
Length of Day
11h 46m
Waning Crescent, 18% of the Moon is Illuminated
Oct 11
Waning Crescent
Oct 15
New
Oct 21
First Quarter
Oct 29
Full
Nov 6
Last Quarter

Hourly Weather History & Observations

Time (CDT) Temp. Heat Index Dew Point Humidity Pressure Visibility Wind Dir Wind Speed Gust Speed Precip Events Conditions
12:50 AM 75 °F - 70 °F 80% 29.93 in 5 mi NE 2.2 mph - -   Haze
3:46 AM 74 °F - 71 °F 88% 29.92 in 2 mi NE 2.2 mph - -   Haze
5:59 AM 71.6 °F - 64.4 °F 78% 30.01 in 8.0 mi Calm Calm - N/A   Mostly Cloudy
6:40 AM 73.4 °F - 64.4 °F 73% 30.01 in 8.0 mi Calm Calm - N/A   Mostly Cloudy
6:44 AM 73 °F - 70 °F 86% 29.94 in 2 mi NE 2.2 mph - -   Haze
7:56 AM 73.4 °F - 64.4 °F 73% 30.01 in 8.0 mi Calm Calm - N/A   Mostly Cloudy
8:40 AM 75.2 °F - 64.4 °F 69% 30.01 in 8.0 mi Calm Calm - N/A   Scattered Clouds
9:40 AM 77.0 °F - 64.4 °F 65% 30.05 in 8.0 mi Calm Calm - N/A   Scattered Clouds
9:45 AM 80 °F - 68 °F 59% 29.97 in 6 mi NE 4.5 mph - -   Haze
10:40 AM 80.6 °F 82.3 °F 64.4 °F 58% 30.05 in 8.0 mi Calm Calm - N/A   Scattered Clouds
11:40 AM 80.6 °F 82.3 °F 64.4 °F 58% 30.05 in 8.0 mi Calm Calm - N/A   Scattered Clouds
12:40 PM 88 °F - 70 °F 45% 29.94 in 6 mi NE 6.7 mph - -   Haze
12:40 PM 82.4 °F 83.9 °F 64.4 °F 54% 30.05 in 8.0 mi Calm Calm - N/A   Scattered Clouds
1:40 PM 84.2 °F 85.6 °F 64.4 °F 51% 30.00 in 8.0 mi Calm Calm - N/A   Mostly Cloudy
2:43 PM 84.2 °F 88.4 °F 69.8 °F 62% 29.98 in 8.0 mi SW 6.9 mph - N/A   Scattered Clouds
3:41 PM 86.0 °F 91.8 °F 71.6 °F 62% 29.93 in 8.0 mi SSW 6.9 mph - N/A   Scattered Clouds
3:50 PM 91 °F - 76 °F 54% 29.84 in 6 mi SW 6.7 mph - -   Haze
4:49 PM 82.4 °F 87.2 °F 71.6 °F 70% 29.92 in 6.0 mi WSW 9.2 mph - N/A   Mostly Cloudy
5:50 PM 78.8 °F - 71.6 °F 78% 29.94 in 6.0 mi WSW 11.5 mph - N/A   Mostly Cloudy
6:42 PM 77.0 °F - 71.6 °F 83% 29.98 in 5.0 mi WSW 9.2 mph - N/A Thunderstorm Mostly Cloudy
6:48 PM 83 °F - 72 °F 63% 29.87 in 5 mi SW 2.2 mph - -   Haze
7:05 PM 75.2 °F - 71.6 °F 89% 30.00 in 4.0 mi North 17.3 mph 28.8 mph N/A Thunderstorm Thunderstorm
7:13 PM 73.4 °F - 71.6 °F 94% 30.00 in 2.0 mi NNE 27.6 mph - N/A Rain , Thunderstorm Heavy Thunderstorms and Rain
7:17 PM 69.8 °F - 68.0 °F 94% 30.01 in 0.8 mi NNE 15.0 mph 28.8 mph N/A Rain , Thunderstorm Heavy Thunderstorms and Rain
7:49 PM 68.0 °F - 66.2 °F 94% 29.99 in 3.0 mi WNW 9.2 mph - N/A Rain , Thunderstorm Thunderstorms and Rain
8:17 PM 69.8 °F - 68.0 °F 94% 29.98 in 5.0 mi NNW 6.9 mph - N/A Rain Light Rain
8:43 PM 69.8 °F - 68.0 °F 94% 30.01 in 6.0 mi Calm Calm - N/A   Mostly Cloudy
9:47 PM 72 °F - 69 °F 88% 29.94 in 5 mi NE 2.2 mph - -   Haze